Tracking 19125 objects as of 19-Apr-2018
HD Live streaming from Space Station
objects crossing your sky now

CZ-4 DEB

Track CZ-4 DEB now!
10-day predictions


NORAD ID: 35378
Int'l Code: 2006-046L
Perigee: 576.8 km
Apogee: 821.6 km
Inclination: 97.8 °
Period: 98.6 minutes
Semi major axis: 7070 km
RCS: 0.0012 m2 (small)
Launch date: October 23, 2006
Source: People's Republic of China (PRC)
Launch site: Taiyaun Space Center, China (TSC)

Note: This is SATELLITE DEBRIS
aabbcc
Your satellite tracking list
Your tracking list is empty




NASA's NSSDC Master Catalog

Two Line Element Set (TLE):
1 35378U 06046L   18108.16433786  .00000615  00000-0  11151-3 0  9992
2 35378  97.8302 248.3713 0173145 102.5397 259.5232 14.60339956601655
Source of the keplerian elements: AFSPC